Las Vegas, NV

10:48 AM PST on February 25, 2017 (GMT -0800)
North Las Vegas

Weather History for KVGT - September, 2012

Change the Weather History Date:

Saturday, September 29, 2012

  Actual Average Record
Temperature  
Mean Temperature 84 °F 76 °F  
Max Temperature 96 °F 88 °F 102 °F (2003)
Min Temperature 73 °F 64 °F 55 °F (2013)
Degree Days  
Heating Degree Days 0 0  
Month to date heating degree days 0  
Since 1 July heating degree days 0  
Cooling Degree Days 19 11  
Month to date cooling degree days 475  
Year to date cooling degree days 3121  
Growing Degree Days 34 (Base 50)    
Moisture  
Dew Point 33 °F    
Average Humidity 17    
Maximum Humidity 25    
Minimum Humidity 9    
Precipitation  
Precipitation 0.00 in 0.01 in 0.01 in (1957)
Month to date precipitation 0.35  
Year to date precipitation 3.95  
Sea Level Pressure  
Sea Level Pressure 29.97 in    
Wind  
Wind Speed 6 mph (NNW)    
Max Wind Speed 13 mph    
Max Gust Speed -    
Visibility 10 miles    
Events      
T = Trace of Precipitation, MM = Missing Value Source: NWS Daily Summary

Daily Weather History Graph

Daily Weather History Graph

Search for Another Location

Airport or City:

Trip Planner

Search our weather history database for the weather conditions in past years. The results will help you decide how hot, cold, wet, or windy it might be!

Date:

Astronomy

Sep. 29, 2012 Rise Set
Actual Time 6:34 AM PDT 6:26 PM PDT
Civil Twilight 6:09 AM PDT 6:52 PM PDT
Nautical Twilight 5:39 AM PDT 7:21 PM PDT
Astronomical Twilight 5:09 AM PDT 7:51 PM PDT
Moon 6:02 PM PDT (9/29) 6:09 AM PDT (9/29)
Length of Visible Light 12h 42m
Length of Day
11h 51m
Full, 100% of the Moon is Illuminated
Sep 29
Full
Sep 29
Full
Oct 8
Last Quarter
Oct 15
New
Oct 21
First Quarter

Hourly Weather History & Observations

Time (PDT) Temp. Dew Point Humidity Pressure Visibility Wind Dir Wind Speed Gust Speed Precip Events Conditions
12:53 AM 75.0 °F 37.0 °F 25% 29.92 in 10.0 mi NW 5.8 mph - N/A   Clear
1:53 AM 77.0 °F 34.0 °F 21% 29.92 in 10.0 mi NNW 8.1 mph - N/A   Clear
2:53 AM 78.1 °F 34.0 °F 20% 29.91 in 10.0 mi North 10.4 mph - N/A   Clear
3:53 AM 77.0 °F 34.0 °F 21% 29.93 in 10.0 mi NNW 9.2 mph - N/A   Clear
4:53 AM 75.0 °F 34.0 °F 22% 29.95 in 10.0 mi NNW 9.2 mph - N/A   Clear
5:53 AM 73.9 °F 34.0 °F 23% 29.97 in 10.0 mi North 8.1 mph - N/A   Clear
6:53 AM 73.0 °F 34.0 °F 24% 29.99 in 10.0 mi Calm Calm - N/A   Clear
7:53 AM 75.0 °F 36.0 °F 24% 30.02 in 10.0 mi Calm Calm - N/A   Clear
8:53 AM 81.0 °F 35.1 °F 19% 30.04 in 10.0 mi NNW 3.5 mph - N/A   Clear
9:53 AM 84.9 °F 34.0 °F 16% 30.04 in 10.0 mi North 4.6 mph - N/A   Clear
10:53 AM 87.1 °F 35.1 °F 16% 30.03 in 10.0 mi NE 3.5 mph - N/A   Clear
11:53 AM 88.0 °F 36.0 °F 16% 30.02 in 10.0 mi SSE 3.5 mph - N/A   Clear
12:53 PM 90.0 °F 35.1 °F 14% 30.00 in 10.0 mi South 3.5 mph - N/A   Clear
1:53 PM 93.0 °F 32.0 °F 12% 29.96 in 10.0 mi WSW 5.8 mph - N/A   Clear
2:53 PM 93.9 °F 28.9 °F 10% 29.95 in 10.0 mi SE 4.6 mph - N/A   Clear
3:53 PM 95.0 °F 27.0 °F 9% 29.93 in 10.0 mi North 4.6 mph - N/A   Clear
4:53 PM 93.9 °F 28.0 °F 10% 29.93 in 10.0 mi Calm Calm - N/A   Clear
5:53 PM 91.9 °F 27.0 °F 10% 29.93 in 10.0 mi Calm Calm - N/A   Clear
6:53 PM 90.0 °F 30.0 °F 12% 29.94 in 10.0 mi Calm Calm - N/A   Clear
7:53 PM 86.0 °F 32.0 °F 14% 29.96 in 10.0 mi West 3.5 mph - N/A   Clear
8:53 PM 82.0 °F 36.0 °F 19% 29.97 in 10.0 mi NW 6.9 mph - N/A   Clear
9:53 PM 80.1 °F 35.1 °F 20% 29.98 in 10.0 mi NW 5.8 mph - N/A   Clear
10:53 PM 77.0 °F 35.1 °F 22% 29.99 in 10.0 mi NNW 5.8 mph - N/A   Clear
11:53 PM 81.0 °F 30.9 °F 16% 29.98 in 10.0 mi NNW 12.7 mph - N/A   Clear